Date_and_time,latitude,longitude,wind_speed,RelWindDirFrom,WindDirFrom,air_pressure,air_temperature,relative_humidity,Temp,platform_speed_wrt_ground,air_pressure_at_mean_sea_level,platform_orientation
2019-03-02 00:00,50.6304333333333,-96.9807666666667,2.2,3.0,166,999.23,-16.0,74,0.47,0.0,1028.95,138.7
2019-03-02 00:10,50.6304333333333,-96.9807683333333,1.6,2.1,165,999.37,-15.9,75,0.47,0.0,1029.24,138.7
2019-03-02 00:20,50.630435,-96.9807683333333,0.8,1.6,153,999.47,-16.0,75,0.47,0.0,1029.41,138.7
2019-03-02 00:30,50.630435,-96.9807683333333,0.0,0.0,0,999.58,-16.2,75,0.48,0.0,1029.55,138.7
2019-03-02 00:40,50.6304466666667,-96.9807716666667,1.8,2.6,215,999.73,-16.3,77,0.48,0.0,1029.70,138.7
2019-03-02 00:50,50.6304466666667,-96.9807683333333,1.6,2.6,215,999.86,-16.1,77,0.48,0.0,1029.82,138.7
2019-03-02 01:00,50.630445,-96.9807666666667,1.0,1.7,214,1000.07,-16.0,77,0.48,0.0,1030.05,38.0
2019-03-02 01:10,50.6304433333333,-96.9807666666667,1.8,3.0,257,1000.32,-15.8,77,0.48,0.0,1030.27,38.0
2019-03-02 01:20,50.6304433333333,-96.9807683333333,3.0,4.3,263,1000.43,-16.0,78,0.48,0.0,1030.43,38.0
2019-03-02 01:30,50.630445,-96.98077,3.7,4.8,288,1000.58,-15.9,76,0.48,0.0,1030.59,38.0
2019-03-02 01:40,50.6304516666667,-96.980805,3.1,4.7,306,1000.71,-15.7,75,0.48,0.0,1030.70,38.0
2019-03-02 01:50,50.6304383333333,-96.98074,3.8,6.2,332,1000.80,-16.2,77,0.48,0.0,1030.82,38.0
2019-03-02 02:00,50.6304316666667,-96.98077,6.2,8.7,346,1000.79,-15.7,79,0.48,0.0,1030.78,142.0
2019-03-02 02:10,50.6304366666667,-96.9807733333333,9.3,12.2,357,1000.80,-15.6,78,0.48,0.0,1030.79,142.0
2019-03-02 02:20,50.63044,-96.98077,11.0,14.9,358,1000.88,-16.0,77,0.49,0.0,1030.90,142.0
2019-03-02 02:30,50.6304416666667,-96.98077,11.2,15.0,358,1000.98,-16.8,75,0.49,0.0,1031.06,142.0
2019-03-02 02:40,50.6304433333333,-96.9807683333333,10.7,13.4,2,1001.08,-17.4,75,0.49,0.0,1031.18,142.0
2019-03-02 02:50,50.6304433333333,-96.9807683333333,10.8,14.0,6,1001.09,-18.1,75,0.49,0.0,1031.23,142.0
2019-03-02 03:00,50.6304433333333,-96.9807666666667,10.5,13.3,360,1001.27,-18.8,75,0.48,0.0,1031.45,38.0
2019-03-02 03:10,50.630445,-96.9807683333333,10.1,12.5,356,1001.37,-19.0,74,0.48,0.0,1031.57,38.0
2019-03-02 03:20,50.63044,-96.98077,9.9,13.5,360,1001.43,-19.3,74,0.49,0.0,1031.65,38.0
2019-03-02 03:30,50.6304333333333,-96.9807933333333,8.6,11.7,357,1001.54,-19.7,74,0.49,0.0,1031.78,38.0
2019-03-02 03:40,50.6304416666667,-96.98077,7.2,9.1,358,1001.61,-19.8,75,0.49,0.0,1031.88,38.0
2019-03-02 03:50,50.63044,-96.98077,7.1,8.9,4,1001.68,-20.1,76,0.49,0.0,1031.94,38.0
2019-03-02 04:00,50.6304433333333,-96.9807666666667,6.0,7.7,356,1001.70,-20.5,76,0.49,0.0,1031.98,0.0
2019-03-02 04:10,50.6304283333333,-96.9807416666667,4.9,5.8,343,1001.70,-20.5,77,0.49,0.0,1032.01,0.0
2019-03-02 04:20,50.6304433333333,-96.9807866666667,5.2,6.8,335,1001.68,-20.2,77,0.49,0.0,1032.01,0.0
2019-03-02 04:30,50.630445,-96.9807783333333,4.1,7.2,340,1001.72,-20.0,76,0.49,0.0,1032.08,0.0
2019-03-02 04:40,50.630445,-96.98078,4.4,5.8,341,1001.78,-19.8,75,0.49,0.0,1032.17,0.0
2019-03-02 04:50,50.630445,-96.9807783333333,4.2,7.2,323,1001.82,-19.9,74,0.49,0.0,1032.26,0.0
2019-03-02 05:00,50.6304466666667,-96.9807816666667,5.5,8.9,325,1001.87,-19.8,74,0.49,0.0,1032.32,318.8
2019-03-02 05:10,50.6304233333333,-96.9807766666667,5.5,8.2,318,1001.82,-19.9,73,0.49,0.0,1032.29,318.8
2019-03-02 05:20,50.630445,-96.9807783333333,6.0,8.5,314,1001.73,-20.1,73,0.49,0.0,1032.23,318.8
2019-03-02 05:30,50.6304266666667,-96.9807966666667,5.5,7.8,304,1001.77,-20.3,74,0.48,0.0,1032.30,318.8
2019-03-02 05:40,50.63044,-96.9807833333333,6.5,9.0,296,1001.75,-20.3,75,0.49,0.0,1032.29,318.8
2019-03-02 05:50,50.6304166666667,-96.9807683333333,6.2,9.0,299,1001.82,-20.4,75,0.49,0.0,1032.39,318.8
2019-03-02 06:00,50.630455,-96.98076,6.7,9.6,308,1001.89,-20.6,75,0.49,0.0,1032.49,14.5
2019-03-02 06:10,50.63044,-96.9807666666667,6.3,9.4,306,1001.94,-20.8,76,0.49,0.0,1032.53,14.5
2019-03-02 06:20,50.6304383333333,-96.9807633333333,6.0,8.4,303,1002.00,-20.9,76,0.49,0.0,1032.58,14.5
2019-03-02 06:30,50.6304433333333,-96.9807633333333,5.4,8.7,295,1001.98,-21.1,76,0.49,0.0,1032.56,14.5
2019-03-02 06:40,50.630445,-96.9807783333333,4.8,7.5,284,1002.05,-21.3,77,0.49,0.0,1032.65,14.5
2019-03-02 06:50,50.630445,-96.980775,5.2,7.9,277,1002.11,-21.5,77,0.49,0.0,1032.72,14.5
2019-03-02 07:00,50.630445,-96.980775,5.7,7.6,285,1002.16,-21.8,78,0.49,0.0,1032.80,270.0
2019-03-02 07:10,50.6304466666667,-96.9807783333333,6.0,8.8,295,1002.18,-21.8,78,0.49,0.0,1032.83,270.0
2019-03-02 07:20,50.630455,-96.980765,6.5,9.5,292,1002.23,-21.8,77,0.49,0.0,1032.90,270.0
2019-03-02 07:30,50.6304516666667,-96.9807616666667,7.1,9.4,292,1002.24,-21.9,77,0.49,0.0,1032.91,270.0
2019-03-02 07:40,50.6304533333333,-96.9807633333333,7.0,11.0,294,1002.30,-21.9,77,0.49,0.0,1032.97,270.0
2019-03-02 07:50,50.630455,-96.9807683333333,7.2,9.7,296,1002.35,-22.0,77,0.49,0.0,1033.04,270.0
2019-03-02 08:00,50.63045,-96.9807583333333,6.7,9.8,291,1002.44,-22.1,77,0.49,0.0,1033.15,72.3
2019-03-02 08:10,50.6304516666667,-96.9807683333333,6.6,9.6,289,1002.59,-22.1,77,0.49,0.0,1033.32,72.3
2019-03-02 08:20,50.6304516666667,-96.9807716666667,6.4,10.0,289,1002.69,-22.2,77,0.48,0.0,1033.44,72.3
2019-03-02 08:30,50.63045,-96.9807733333333,6.7,10.5,291,1002.74,-22.2,77,0.48,0.0,1033.51,72.3
2019-03-02 08:40,50.6304483333333,-96.9807583333333,6.6,9.2,291,1002.79,-22.3,77,0.48,0.0,1033.58,72.3
2019-03-02 08:50,50.630465,-96.9807483333333,5.9,8.9,295,1002.79,-22.4,77,0.48,0.0,1033.60,72.3
2019-03-02 09:00,50.6304616666667,-96.9807633333333,5.1,7.9,286,1002.84,-22.4,77,0.48,0.0,1033.65,360.0
2019-03-02 09:10,50.630435,-96.9807766666667,4.6,6.4,274,1002.98,-22.6,77,0.48,0.0,1033.81,360.0
2019-03-02 09:20,50.63045,-96.98077,4.3,6.6,266,1003.12,-22.8,77,0.48,0.0,1033.97,360.0
2019-03-02 09:30,50.6304483333333,-96.9807733333333,5.0,7.5,262,1003.10,-22.8,77,0.48,0.0,1033.96,360.0
2019-03-02 09:40,50.6304466666667,-96.98077,5.4,7.6,263,1003.15,-22.8,77,0.48,0.0,1034.01,360.0
2019-03-02 09:50,50.6304433333333,-96.98077,5.6,9.4,264,1003.22,-23.0,77,0.48,0.0,1034.09,360.0
2019-03-02 10:00,50.6304433333333,-96.9807616666667,5.6,7.8,266,1003.22,-23.2,77,0.48,0.0,1034.11,90.0
2019-03-02 10:10,50.6304383333333,-96.98076,6.0,8.4,265,1003.31,-23.3,77,0.47,0.0,1034.22,90.0
2019-03-02 10:20,50.6304383333333,-96.9807716666667,5.1,8.2,265,1003.32,-23.4,77,0.47,0.0,1034.23,90.0
2019-03-02 10:30,50.63044,-96.98077,5.7,8.1,265,1003.28,-23.5,77,0.46,0.0,1034.21,90.0
2019-03-02 10:40,50.630405,-96.9807566666667,6.1,8.7,268,1003.23,-23.8,77,0.46,0.0,1034.17,90.0
2019-03-02 10:50,50.6304333333333,-96.9807683333333,5.5,8.6,271,1003.22,-24.0,77,0.46,0.0,1034.19,90.0
2019-03-02 11:00,50.6304366666667,-96.9807666666667,6.1,9.9,271,1003.29,-24.2,77,0.45,0.0,1034.27,360.0
2019-03-02 11:10,50.63044,-96.980765,6.4,9.7,274,1003.34,-24.2,77,0.45,0.0,1034.35,360.0
2019-03-02 11:20,50.63044,-96.980765,6.0,9.1,274,1003.38,-24.3,77,0.45,0.0,1034.40,360.0
2019-03-02 11:30,50.6304416666667,-96.9807666666667,5.4,7.9,274,1003.60,-24.5,77,0.45,0.0,1034.63,360.0
2019-03-02 11:40,50.6304433333333,-96.9807666666667,5.7,7.5,267,1003.69,-24.7,76,0.45,0.0,1034.74,360.0
2019-03-02 11:50,50.630445,-96.9807516666667,5.7,8.4,275,1003.73,-24.8,76,0.44,0.0,1034.80,360.0
2019-03-02 12:00,50.6304416666667,-96.9807666666667,6.6,9.2,272,1003.74,-24.9,76,0.44,0.0,1034.83,360.0
2019-03-02 12:10,50.6304383333333,-96.9807566666667,7.3,10.2,269,1003.76,-25.1,76,0.43,0.0,1034.86,360.0
2019-03-02 12:20,50.630445,-96.9807666666667,7.7,11.2,270,1003.73,-25.1,76,0.43,0.0,1034.84,360.0
2019-03-02 12:30,50.6304416666667,-96.98077,6.4,10.0,266,1003.81,-25.1,76,0.42,0.0,1034.94,360.0
2019-03-02 12:40,50.6304433333333,-96.98077,6.4,9.3,265,1003.92,-25.1,75,0.42,0.0,1035.08,360.0
2019-03-02 12:50,50.630445,-96.98077,6.4,10.2,263,1003.98,-25.0,75,0.42,0.0,1035.13,360.0
2019-03-02 13:00,50.630445,-96.98077,5.7,7.7,269,1004.05,-24.9,75,0.41,0.0,1035.21,270.0
2019-03-02 13:10,50.63044,-96.9807633333333,6.0,8.5,265,1004.08,-24.9,75,0.41,0.0,1035.24,270.0
2019-03-02 13:20,50.63044,-96.9807683333333,5.7,8.6,274,1004.17,-24.8,75,0.41,0.0,1035.34,270.0
2019-03-02 13:30,50.63044,-96.98077,5.3,7.9,272,1004.23,-24.7,75,0.41,0.0,1035.42,270.0
2019-03-02 13:40,50.63044,-96.9807683333333,5.6,8.3,268,1004.35,-24.7,74,0.40,0.0,1035.55,270.0
2019-03-02 13:50,50.63044,-96.9807683333333,6.7,9.6,266,1004.45,-24.6,74,0.40,0.0,1035.65,270.0
2019-03-02 14:00,50.63044,-96.9807683333333,7.9,11.3,264,1004.51,-24.5,73,0.40,0.0,1035.71,360.0
2019-03-02 14:10,50.6304266666667,-96.980775,7.7,11.2,262,1004.60,-24.5,73,0.40,0.0,1035.80,360.0
2019-03-02 14:20,50.6304616666667,-96.98075,8.4,12.4,267,1004.57,-24.2,72,0.40,0.0,1035.75,360.0
2019-03-02 14:30,50.6304533333333,-96.9807583333333,8.3,12.7,265,1004.59,-24.0,71,0.40,0.0,1035.76,360.0
2019-03-02 14:40,50.630445,-96.9807633333333,9.7,13.5,265,1004.50,-23.8,70,0.39,0.0,1035.66,360.0
2019-03-02 14:50,50.6304466666667,-96.9807633333333,8.5,13.1,267,1004.54,-23.6,70,0.39,0.0,1035.68,360.0
2019-03-02 15:00,50.630445,-96.980765,8.8,13.6,268,1004.68,-23.4,69,0.38,0.0,1035.80,0.0
2019-03-02 15:10,50.6304433333333,-96.980765,8.8,13.0,271,1004.75,-23.1,68,0.38,0.0,1035.85,0.0
2019-03-02 15:20,50.6304433333333,-96.9807666666667,9.9,12.9,273,1004.77,-22.9,68,0.38,0.0,1035.86,0.0
2019-03-02 15:30,50.6304416666667,-96.9807666666667,8.7,12.9,274,1004.94,-22.6,67,0.38,0.0,1036.01,0.0
2019-03-02 15:40,50.6304416666667,-96.9807683333333,9.0,12.8,272,1004.94,-22.3,66,0.37,0.0,1035.98,0.0
2019-03-02 15:50,50.6304416666667,-96.98077,7.8,12.3,277,1004.96,-21.8,66,0.37,0.0,1035.98,0.0
2019-03-02 16:00,50.6304416666667,-96.9807683333333,8.9,13.4,271,1005.08,-21.7,65,0.37,0.0,1036.08,0.0
2019-03-02 16:10,50.63044,-96.98077,9.6,14.1,268,1005.22,-21.5,65,0.37,0.0,1036.20,0.0
2019-03-02 16:20,50.63044,-96.98077,9.4,14.6,272,1005.15,-21.3,64,0.37,0.0,1036.10,0.0
2019-03-02 16:30,50.63044,-96.98077,8.7,14.2,275,1005.16,-21.0,64,0.36,0.0,1036.08,0.0
2019-03-02 16:40,50.63044,-96.9807716666667,9.1,14.8,278,1005.09,-20.7,63,0.36,0.0,1035.98,0.0
2019-03-02 16:50,50.6304416666667,-96.9807716666667,9.6,13.4,270,1005.02,-20.5,63,0.36,0.0,1035.88,0.0
2019-03-02 17:00,50.63044,-96.9807716666667,9.5,14.5,278,1004.96,-20.2,62,0.36,0.0,1035.78,270.0
2019-03-02 17:10,50.6304383333333,-96.9807833333333,7.6,12.7,272,1005.12,-19.9,61,0.35,0.0,1035.92,270.0
2019-03-02 17:20,50.6304433333333,-96.9807783333333,8.0,13.6,268,1005.11,-19.6,60,0.35,0.0,1035.87,270.0
2019-03-02 17:30,50.63044,-96.9807783333333,7.8,11.9,269,1005.11,-19.5,59,0.35,0.0,1035.84,270.0
2019-03-02 17:40,50.6304416666667,-96.9807766666667,7.5,12.5,277,1005.03,-19.1,58,0.35,0.0,1035.71,270.0
2019-03-02 17:50,50.6304416666667,-96.9807766666667,8.2,12.5,293,1004.98,-18.9,58,0.35,0.0,1035.63,270.0
2019-03-02 18:00,50.6304416666667,-96.9807766666667,8.3,13.3,299,1005.03,-18.9,57,0.35,0.0,1035.68,270.0
2019-03-02 18:10,50.63044,-96.9807533333333,8.1,11.5,294,1005.10,-18.8,56,0.34,0.0,1035.73,270.0
2019-03-02 18:20,50.630445,-96.9807616666667,9.9,14.4,297,1004.95,-18.8,54,0.35,0.0,1035.55,270.0
2019-03-02 18:30,50.6304416666667,-96.9807633333333,10.0,15.0,291,1004.89,-18.7,52,0.35,0.0,1035.47,270.0
2019-03-02 18:40,50.6304466666667,-96.980765,8.7,13.7,297,1004.85,-18.6,51,0.35,0.0,1035.40,270.0
2019-03-02 18:50,50.6304333333333,-96.9807466666667,8.3,12.5,288,1004.85,-18.4,51,0.35,0.0,1035.38,270.0
2019-03-02 19:00,50.6304416666667,-96.9807616666667,8.2,12.5,281,1004.72,-18.3,50,0.35,0.0,1035.22,90.0
2019-03-02 19:10,50.6304433333333,-96.980765,7.9,11.5,274,1004.59,-18.3,50,0.35,0.0,1035.07,90.0
2019-03-02 19:20,50.6304533333333,-96.980755,7.8,11.6,277,1004.41,-18.4,50,0.35,0.0,1034.88,90.0
2019-03-02 19:30,50.6304483333333,-96.9807566666667,8.2,11.2,270,1004.20,-18.1,50,0.35,0.0,1034.62,90.0
2019-03-02 19:40,50.63045,-96.980765,7.7,12.0,268,1004.18,-18.0,50,0.35,0.0,1034.58,90.0
2019-03-02 19:50,50.63045,-96.9807666666667,7.3,12.3,264,1004.03,-18.1,51,0.35,0.0,1034.44,90.0
2019-03-02 20:00,50.6304333333333,-96.9807583333333,5.7,10.2,258,1003.97,-17.7,51,0.35,0.0,1034.35,143.4
2019-03-02 20:10,50.6304633333333,-96.980785,8.7,13.2,253,1003.84,-18.1,50,0.35,0.0,1034.23,143.4
2019-03-02 20:20,50.6304583333333,-96.9807683333333,9.1,12.8,238,1003.75,-18.2,49,0.35,0.0,1034.14,143.4
2019-03-02 20:30,50.6304566666667,-96.9807616666667,8.0,13.1,252,1003.59,-17.8,47,0.36,0.0,1033.95,143.4
2019-03-02 20:40,50.6304216666667,-96.98077,8.8,12.7,252,1003.49,-17.8,47,0.36,0.0,1033.83,143.4
2019-03-02 20:50,50.630435,-96.9807766666667,9.4,13.2,247,1003.48,-18.0,47,0.36,0.0,1033.82,143.4
2019-03-02 21:00,50.6304383333333,-96.9807716666667,8.2,12.3,237,1003.43,-18.1,47,0.36,0.0,1033.79,90.0
2019-03-02 21:10,50.6304383333333,-96.980775,7.5,11.8,246,1003.38,-18.0,47,0.36,0.0,1033.73,90.0
2019-03-02 21:20,50.6304383333333,-96.9807716666667,8.8,12.4,250,1003.37,-18.3,47,0.36,0.0,1033.72,90.0
2019-03-02 21:30,50.6304383333333,-96.98077,8.7,12.1,252,1003.40,-18.0,47,0.37,0.0,1033.72,90.0
2019-03-02 21:40,50.6304366666667,-96.98077,9.2,13.8,250,1003.46,-17.9,46,0.37,0.0,1033.79,90.0
2019-03-02 21:50,50.6304366666667,-96.98077,9.1,13.4,247,1003.42,-17.9,46,0.37,0.0,1033.73,90.0
2019-03-02 22:00,50.6304366666667,-96.9807683333333,8.0,13.9,246,1003.25,-17.9,46,0.37,0.0,1033.57,228.3
2019-03-02 22:10,50.6304366666667,-96.9807683333333,7.9,11.4,242,1003.14,-18.2,47,0.37,0.0,1033.48,228.3
2019-03-02 22:20,50.6304366666667,-96.9807683333333,8.8,12.8,242,1003.02,-18.6,47,0.37,0.0,1033.35,228.3
2019-03-02 22:30,50.6304366666667,-96.9807683333333,7.1,10.6,248,1002.95,-18.7,48,0.37,0.0,1033.29,228.3
2019-03-02 22:40,50.6304366666667,-96.9807683333333,8.4,11.4,255,1002.86,-18.7,48,0.38,0.0,1033.21,228.3
2019-03-02 22:50,50.6304366666667,-96.9807683333333,7.0,10.7,259,1002.77,-18.8,50,0.38,0.0,1033.13,228.3
2019-03-02 23:00,50.6304366666667,-96.9807683333333,6.6,10.2,262,1002.65,-18.8,49,0.38,0.0,1033.00,311.7
2019-03-02 23:10,50.6304366666667,-96.9807683333333,5.7,9.7,264,1002.52,-18.9,50,0.38,0.0,1032.89,311.7
2019-03-02 23:20,50.630475,-96.980785,5.1,7.6,236,1002.45,-19.0,51,0.39,0.0,1032.81,311.7
2019-03-02 23:30,50.6304366666667,-96.9807666666667,6.5,10.1,238,1002.38,-19.2,51,0.39,0.0,1032.74,311.7
